| time (UTC) | temp F | wind direction | speed knots | gust knots | rain 1hr in | rain 24hr in | rain mn in | humidity % | barometer mb |
| 20260504234557 | 67 | 343 | 7.8 | 15.6 | 0.00 | 0.00 | 0.00 | 33 | 1005.8 |
| 20260504233059 | 68 | 5 | 10.4 | 21.7 | 0.00 | 0.00 | 0.00 | 31 | 1005.6 |
| 20260504231555 | 70 | 7 | 8.7 | 24.3 | 0.00 | 0.00 | 0.00 | 30 | 1005.3 |
| 20260504230057 | 71 | 325 | 7.8 | 21.7 | 0.00 | 0.00 | 0.00 | 29 | 1004.9 |
| 20260504224556 | 72 | 338 | 7.0 | 20.0 | 0.00 | 0.00 | 0.00 | 29 | 1004.5 |
| 20260504223120 | 72 | 321 | 8.7 | 17.4 | 0.00 | 0.00 | 0.00 | 28 | 1004.4 |
| 20260504221600 | 73 | 340 | 6.1 | 21.7 | 0.00 | 0.00 | 0.00 | 28 | 1004.0 |
| 20260504220058 | 74 | 350 | 7.8 | 19.1 | 0.00 | 0.00 | 0.00 | 28 | 1003.9 |
| 20260504214557 | 75 | 354 | 5.2 | 17.4 | 0.00 | 0.00 | 0.00 | 27 | 1003.9 |
| 20260504213106 | 76 | 340 | 7.8 | 15.6 | 0.00 | 0.00 | 0.00 | 26 | 1003.7 |
| 20260504211652 | 76 | 5 | 6.1 | 17.4 | 0.00 | 0.00 | 0.00 | 27 | 1003.5 |
| 20260504210058 | 78 | 327 | 1.7 | 13.0 | 0.00 | 0.00 | 0.00 | 29 | 1003.2 |
| 20260504204558 | 77 | 5 | 4.3 | 12.2 | 0.00 | 0.00 | 0.00 | 29 | 1003.2 |
| 20260504203102 | 77 | 3 | 5.2 | 16.5 | 0.00 | 0.00 | 0.00 | 30 | 1003.3 |
| 20260504201611 | 77 | 340 | 7.0 | 16.5 | 0.00 | 0.00 | 0.00 | 32 | 1003.2 |
| 20260504200057 | 77 | 340 | 3.5 | 14.8 | 0.00 | 0.00 | 0.00 | 33 | 1003.2 |
| 20260504194558 | 78 | 336 | 3.5 | 17.4 | 0.00 | 0.00 | 0.00 | 32 | 1003.2 |
| 20260504193107 | 78 | 326 | 6.1 | 14.8 | 0.00 | 0.00 | 0.00 | 33 | 1002.9 |
| 20260504191611 | 79 | 338 | 4.3 | 14.8 | 0.00 | 0.00 | 0.00 | 33 | 1002.8 |
| 20260504190106 | 78 | 344 | 7.0 | 19.1 | 0.00 | 0.00 | 0.00 | 34 | 1002.7 |
| 20260504184556 | 79 | 324 | 6.1 | 14.8 | 0.00 | 0.00 | 0.00 | 32 | 1002.5 |
| 20260504183056 | 80 | 1 | 4.3 | 13.0 | 0.00 | 0.00 | 0.00 | 32 | 1002.5 |
| 20260504181601 | 80 | 328 | 4.3 | 13.0 | 0.00 | 0.00 | 0.00 | 29 | 1002.4 |
| 20260504180107 | 79 | 0 | 5.2 | 14.8 | 0.00 | 0.00 | 0.00 | 30 | 1002.4 |
| 20260504174557 | 79 | 311 | 3.5 | 14.8 | 0.00 | 0.00 | 0.00 | 30 | 1002.3 |
| 20260504173057 | 79 | 0 | 3.5 | 13.9 | 0.00 | 0.00 | 0.00 | 31 | 1002.4 |
| 20260504171556 | 78 | 293 | 3.5 | 15.6 | 0.00 | 0.00 | 0.00 | 32 | 1002.5 |
| 20260504081605 | 58 | 0 | 0.9 | 5.2 | 0.00 | 0.00 | 0.00 | 50 | 1004.1 |
| 20260504044556 | 64 | 0 | 0.9 | 2.6 | 0.00 | 0.00 | 0.00 | 40 | 1006.9 |
| 20260504043101 | 64 | 0 | 0.0 | 1.7 | 0.00 | 0.00 | 0.00 | 41 | 1007.1 |
| 20260504041558 | 63 | 283 | 0.0 | 1.7 | 0.00 | 0.00 | 0.00 | 41 | 1007.2 |
| 20260504040132 | 64 | 0 | 0.0 | 0.0 | 0.00 | 0.00 | 0.00 | 41 | 1007.3 |
| 20260504034601 | 64 | 0 | 0.0 | 0.0 | 0.00 | 0.00 | 0.00 | 41 | 1007.7 |
| 20260504033059 | 64 | 0 | 0.0 | 0.0 | 0.00 | 0.00 | 0.00 | 41 | 1007.9 |
| 20260504031606 | 65 | 0 | 0.0 | 0.0 | 0.00 | 0.00 | 0.00 | 41 | 1007.9 |
| 20260504030055 | 66 | 0 | 0.0 | 0.0 | 0.00 | 0.00 | 0.00 | 41 | 1007.9 |
| 20260504024603 | 67 | 0 | 0.0 | 0.0 | 0.00 | 0.00 | 0.00 | 38 | 1008.0 |
| 20260504023058 | 67 | 0 | 0.0 | 0.9 | 0.00 | 0.00 | 0.00 | 39 | 1008.0 |
| 20260504021557 | 69 | 0 | 0.0 | 0.0 | 0.00 | 0.00 | 0.00 | 36 | 1008.2 |
| 20260504020109 | 69 | 0 | 0.0 | 0.0 | 0.00 | 0.00 | 0.00 | 35 | 1008.4 |
| 20260504014556 | 70 | 0 | 0.0 | 0.0 | 0.00 | 0.00 | 0.00 | 34 | 1008.5 |
| 20260504013053 | 70 | 0 | 0.0 | 0.9 | 0.00 | 0.00 | 0.00 | 33 | 1008.4 |
| 20260504011553 | 71 | 0 | 0.0 | 0.0 | 0.00 | 0.00 | 0.00 | 32 | 1008.5 |
| 20260504010056 | 71 | 0 | 0.0 | 0.0 | 0.00 | 0.00 | 0.00 | 32 | 1008.6 |
| 20260504004555 | 72 | 0 | 0.0 | 3.5 | 0.00 | 0.00 | 0.00 | 31 | 1008.7 |
| 20260504003054 | 73 | 300 | 0.0 | 2.6 | 0.00 | 0.00 | 0.00 | 31 | 1008.8 |
| 20260504001556 | 73 | 290 | 0.0 | 5.2 | 0.00 | 0.00 | 0.00 | 30 | 1008.8 |
| 20260504000101 | 73 | 280 | 0.0 | 2.6 | 0.00 | 0.00 | 0.00 | 30 | 1009.1 |